Track STARLINK-4413 now! 10-day predictions STARLINK-4413 is classified as:
1 53207U 22084U 22224.58334491 .00087578 00000-0 14844-2 0 9990 2 53207 97.6546 283.8343 0001838 99.1568 78.0881 15.51213968 1302